Location: Caltech
(34.1382°N, 118.1253°W)
Time: 17:21:51
(UTC-07:00)

Cosmos 1943 Rocket - Visible Passes

Search period start: 24 April 2015 00:00
Search period end: 04 May 2015 00:00
Orbit: 811 x 845 km, 71.0° (Epoch: 23 April)

Date Brightness Start Highest point End Pass type
(mag) Time Alt. Az. Time Alt. Az. Time Alt. Az.
24 Apr 4.6 00:24:28 17° N 00:24:28 17° N 00:25:44 10° N visible
25 Apr 4.5 00:05:19 18° N 00:05:19 18° N 00:06:43 10° NNE visible
25 Apr 4.4 23:46:05 19° NNE 23:46:05 19° NNE 23:47:40 10° NNE visible
26 Apr 4.2 23:26:48 21° NNE 23:26:48 21° NNE 23:28:35 10° NNE visible
27 Apr 4.0 23:07:25 24° NNE 23:07:25 24° NNE 23:09:30 10° NNE visible
28 Apr 4.9 00:48:53 11° NW 00:48:53 11° NW 00:49:51 10° NW visible
28 Apr 3.7 22:47:55 27° NNE 22:47:55 27° NNE 22:50:24 10° NNE visible
29 Apr 4.8 00:29:23 13° NW 00:29:23 13° NW 00:31:35 10° NNW visible
29 Apr 3.4 22:28:18 32° NNE 22:28:18 32° NNE 22:31:16 10° NNE visible
30 Apr 4.6 00:09:44 15° WNW 00:10:06 15° NW 00:13:00 10° NNW visible
30 Apr 2.9 22:08:28 40° NE 22:08:28 40° NE 22:12:08 10° NNE visible
30 Apr 4.5 23:49:53 16° WNW 23:50:53 17° NW 23:54:18 10° NNW visible
01 May 2.5 21:48:22 48° ENE 21:48:22 48° ENE 21:52:58 10° NNE visible
01 May 4.4 23:29:46 17° W 23:31:40 19° NW 23:35:30 10° NNW visible
02 May 2.4 21:27:48 43° SE 21:28:26 45° ESE 21:33:46 10° NE visible
02 May 4.3 23:09:10 14° W 23:12:28 22° WNW 23:16:39 10° N visible
03 May 2.6 21:06:21 22° SSE 21:09:21 39° ESE 21:14:34 10° NE visible
03 May 4.2 22:48:42 10° WSW 22:53:16 25° WNW 22:57:46 10° N visible
